Location: McFarlands Corners
(41.4117°N, 81.3382°W)
Time: 06:17:10
(UTC+00:00)

Tiros 1 - Pass Details

Date: 20 February 2026
Orbit: 618 x 649 km, 48.4° (Epoch: 5 March)

Event Time Altitude Azimuth Distance (km) Brightness Sun altitude
Rises 17:18:05 0° 297° (WNW) 2,901 10.2 37.6°
Reaches altitude 10° 17:20:29 10° 303° (WNW) 1,989 9.5 37.7°
Maximum altitude 17:24:53 47° 17° (NNE) 827 7.7 37.8°
Drops below altitude 10° 17:29:16 10° 92° (E) 1,977 9.8 37.8°
Sets 17:31:39 0° 98° (E) 2,881 10.6 37.8°
